Wallops Island, VA

3:47 PM EST on December 06, 2019 (GMT -0500)
Wallops Flight Facility

Weather History for KWAL - October, 2019

Change the Weather History Date:

Tuesday, October 15, 2019

  Actual Average Record
Temperature  
Mean Temperature 62 °F 59 °F  
Max Temperature 70 °F 68 °F 86 °F (1985)
Min Temperature 53 °F 50 °F 36 °F (2006)
Degree Days  
Heating Degree Days 4    
Month to date heating degree days  
Since 1 July heating degree days  
Cooling Degree Days 0    
Month to date cooling degree days  
Year to date cooling degree days  
Growing Degree Days 12 (Base 50)    
Moisture  
Dew Point 55 °F    
Average Humidity 85    
Maximum Humidity 100    
Minimum Humidity 47    
Precipitation  
Precipitation 0.00 in 0.09 in 0.42 in (2012)
Month to date precipitation 1.53  
Year to date precipitation 32.90  
Sea Level Pressure  
Sea Level Pressure 30.09 in    
Wind  
Wind Speed 4 mph (NNE)    
Max Wind Speed 15 mph    
Max Gust Speed -    
Visibility 7 miles    
Events      
T = Trace of Precipitation, MM = Missing Value Source: NWS Daily Summary

Daily Weather History Graph

Daily Weather History Graph

Search for Another Location

Airport or City:

Astronomy

Oct. 15, 2019 Rise Set
Actual Time 7:10 AM EDT 6:24 PM EDT
Civil Twilight 6:43 AM EDT 6:51 PM EDT
Nautical Twilight 6:13 AM EDT 7:21 PM EDT
Astronomical Twilight 5:42 AM EDT 7:51 PM EDT
Moon 7:44 PM EDT (10/15) 8:37 AM EDT (10/15)
Length of Visible Light 12h 07m
Length of Day
11h 14m
Full, 97% of the Moon is Illuminated
Oct 15
Full
Oct 21
Last Quarter
Oct 27
New
Nov 4
First Quarter
Nov 12
Full

Hourly Weather History & Observations

Time (EDT) Temp. Dew Point Humidity Pressure Visibility Wind Dir Wind Speed Gust Speed Precip Events Conditions
12:54 AM 55.9 °F 55.0 °F 97% 30.06 in 10.0 mi Calm Calm - N/A   Clear
1:54 AM 57.0 °F 57.0 °F 100% 30.07 in 8.0 mi Calm Calm - N/A   Clear
2:18 AM 57.0 °F 57.0 °F 100% 30.08 in 2.0 mi SSW 3.5 mph - N/A   Clear
2:25 AM 55.9 °F 55.9 °F 100% 30.08 in 1.8 mi Calm Calm - N/A   Clear
2:27 AM 55.9 °F 55.9 °F 100% 30.08 in 2.5 mi Calm Calm - N/A   Clear
2:34 AM 55.9 °F 55.0 °F 97% 30.08 in 8.0 mi Calm Calm - N/A   Clear
2:54 AM 54.0 °F 54.0 °F 100% 30.07 in 9.0 mi Calm Calm - N/A   Clear
3:15 AM 55.4 °F 55.4 °F 100% 30.09 in 2.5 mi NW 8.1 mph - N/A   Scattered Clouds
3:17 AM 55.9 °F 55.9 °F 100% 30.09 in 1.8 mi NW 10.4 mph - N/A   Scattered Clouds
3:26 AM 57.0 °F 57.0 °F 100% 30.09 in 1.8 mi WNW 8.1 mph - N/A   Mostly Cloudy
3:43 AM 57.9 °F 57.9 °F 100% 30.10 in 2.5 mi NW 6.9 mph - N/A   Overcast
3:54 AM 57.9 °F 57.9 °F 100% 30.08 in 4.0 mi NNW 5.8 mph - N/A   Overcast
4:07 AM 59.0 °F 59.0 °F 100% 30.09 in 2.0 mi North 4.6 mph - N/A   Overcast
4:14 AM 59.0 °F 59.0 °F 100% 30.09 in 1.0 mi NW 4.6 mph - N/A   Overcast
4:23 AM 59.0 °F 59.0 °F 100% 30.09 in 0.8 mi NNW 5.8 mph - N/A   Mist
4:33 AM 59.0 °F 59.0 °F 100% 30.09 in 1.2 mi WNW 3.5 mph - N/A   Overcast
4:40 AM 57.9 °F 57.9 °F 100% 30.09 in 2.5 mi Calm Calm - N/A   Mostly Cloudy
4:44 AM 57.9 °F 57.9 °F 100% 30.09 in 3.0 mi NNW 3.5 mph - N/A   Scattered Clouds
4:54 AM 57.9 °F 57.9 °F 100% 30.09 in 4.0 mi NNW 5.8 mph - N/A   Partly Cloudy
5:54 AM 55.9 °F 54.0 °F 93% 30.10 in 10.0 mi North 8.1 mph - N/A   Clear
6:54 AM 54.0 °F 52.0 °F 93% 30.12 in 10.0 mi NNW 5.8 mph - N/A   Clear
8:54 AM 60.1 °F 53.1 °F 78% 30.15 in 10.0 mi North 5.8 mph - N/A   Clear
9:54 AM 66.0 °F 54.0 °F 65% 30.16 in 10.0 mi NNE 10.4 mph - N/A   Clear
10:54 AM 68.0 °F 52.0 °F 56% 30.15 in 10.0 mi NE 15.0 mph - N/A   Clear
11:54 AM 69.1 °F 48.0 °F 47% 30.14 in 10.0 mi NE 15.0 mph - N/A   Partly Cloudy
12:54 PM 69.1 °F 50.0 °F 51% 30.13 in 10.0 mi NE 12.7 mph - N/A   Clear
1:54 PM 69.1 °F 53.1 °F 57% 30.12 in 10.0 mi ENE 12.7 mph - N/A   Partly Cloudy
2:54 PM 68.0 °F 53.1 °F 59% 30.11 in 10.0 mi ENE 11.5 mph - N/A   Clear
3:54 PM 68.0 °F 54.0 °F 61% 30.10 in 10.0 mi East 12.7 mph - N/A   Clear
4:54 PM 66.0 °F 52.0 °F 60% 30.08 in 10.0 mi East 9.2 mph - N/A   Clear
5:54 PM 63.0 °F 53.1 °F 70% 30.08 in 10.0 mi East 8.1 mph - N/A   Clear
6:54 PM 62.1 °F 53.1 °F 72% 30.09 in 10.0 mi East 6.9 mph - N/A   Clear
7:54 PM 61.0 °F 54.0 °F 78% 30.08 in 10.0 mi East 6.9 mph - N/A   Clear
8:54 PM 60.1 °F 55.0 °F 83% 30.06 in 10.0 mi East 4.6 mph - N/A   Clear
9:54 PM 61.0 °F 57.9 °F 90% 30.06 in 10.0 mi East 4.6 mph - N/A   Partly Cloudy
10:54 PM 62.1 °F 59.0 °F 90% 30.05 in 10.0 mi ESE 5.8 mph - N/A   Clear
11:54 PM 62.1 °F 60.1 °F 93% 30.04 in 10.0 mi SE 4.6 mph - N/A   Clear